EZY66 EGKK-EGCC

Flight info

Callsign EZY66
Flight time 0h 34m
Altitude 24000
Route LAM N57 WELIN DCT TIMPO DCT ELVOS DCT TNT
Aircraft A20N/M-SDE2E3FGHIRWXY/LB1

Departure

Time 2026-05-07 19:53
Airport London Gatwick Airport (EGKK)

Arrival

Time 2026-05-07 20:27
Airport Manchester Airport (EGCC)
Time Latitude Longitude Altitude Speed Heading
2026-05-07 19:21 51.15443 -0.16430 205 ft 0 kts 76°
2026-05-07 19:37 51.15440 -0.16448 212 ft 2 kts 65°
2026-05-07 19:37 51.15432 -0.16472 214 ft 2 kts 47°
2026-05-07 19:37 51.15419 -0.16488 214 ft 2 kts 18°
2026-05-07 19:38 51.15402 -0.16492 211 ft 2 kts 355°
2026-05-07 19:38 51.15389 -0.16488 207 ft 1 kts 347°
2026-05-07 19:38 51.15387 -0.16488 208 ft 0 kts 346°
2026-05-07 19:39 51.15388 -0.16488 207 ft 1 kts 346°
2026-05-07 19:39 51.15397 -0.16492 209 ft 2 kts 346°
2026-05-07 19:39 51.15410 -0.16498 208 ft 4 kts 341°
2026-05-07 19:39 51.15422 -0.16518 207 ft 4 kts 294°
2026-05-07 19:40 51.15399 -0.16636 215 ft 20 kts 251°
2026-05-07 19:40 51.15356 -0.16927 210 ft 26 kts 257°
2026-05-07 19:40 51.15314 -0.17230 211 ft 31 kts 258°
2026-05-07 19:40 51.15292 -0.17513 204 ft 26 kts 262°
2026-05-07 19:41 51.15257 -0.17775 209 ft 18 kts 258°
2026-05-07 19:41 51.15227 -0.17989 214 ft 21 kts 257°
2026-05-07 19:41 51.15194 -0.18221 206 ft 22 kts 256°
2026-05-07 19:41 51.15165 -0.18467 207 ft 23 kts 260°
2026-05-07 19:42 51.15132 -0.18714 203 ft 23 kts 257°
2026-05-07 19:42 51.15102 -0.18929 208 ft 19 kts 258°
2026-05-07 19:42 51.15073 -0.19138 204 ft 20 kts 256°
2026-05-07 19:42 51.15042 -0.19363 208 ft 21 kts 257°
2026-05-07 19:43 51.15008 -0.19600 208 ft 23 kts 257°
2026-05-07 19:43 51.14972 -0.19851 213 ft 24 kts 257°
2026-05-07 19:43 51.14936 -0.20119 210 ft 25 kts 259°
2026-05-07 19:43 51.14900 -0.20398 203 ft 26 kts 258°
2026-05-07 19:44 51.14863 -0.20676 203 ft 25 kts 258°
2026-05-07 19:44 51.14827 -0.20931 216 ft 21 kts 258°
2026-05-07 19:44 51.14800 -0.21132 210 ft 17 kts 254°
2026-05-07 19:44 51.14774 -0.21268 204 ft 8 kts 262°
2026-05-07 19:45 51.14760 -0.21371 204 ft 12 kts 251°
2026-05-07 19:45 51.14699 -0.21398 206 ft 0 kts 157°
2026-05-07 19:45 51.14695 -0.21395 210 ft 0 kts 157°
2026-05-07 19:46 51.14693 -0.21394 210 ft 4 kts 157°
2026-05-07 19:47 51.14637 -0.21329 212 ft 11 kts 154°
2026-05-07 19:47 51.14620 -0.21324 214 ft 0 kts 168°
2026-05-07 19:51 51.14605 -0.21319 210 ft 10 kts 168°
2026-05-07 19:51 51.14526 -0.21234 211 ft 19 kts 120°
2026-05-07 19:51 51.14523 -0.21101 203 ft 2 kts 77°
2026-05-07 19:52 51.14526 -0.21077 210 ft 4 kts 77°
2026-05-07 19:52 51.14560 -0.20839 208 ft 64 kts 77°
2026-05-07 19:52 51.14719 -0.19690 210 ft 144 kts 77°
2026-05-07 19:52 51.14977 -0.17817 333 ft 195 kts 77°
2026-05-07 19:53 51.15278 -0.15506 771 ft 229 kts 78°
2026-05-07 19:53 51.15627 -0.12828 1287 ft 263 kts 77°
2026-05-07 19:53 51.16027 -0.09840 2054 ft 286 kts 77°
2026-05-07 19:53 51.16491 -0.06680 2839 ft 300 kts 70°
2026-05-07 19:54 51.17534 -0.03727 3485 ft 317 kts 50°
2026-05-07 19:54 51.18974 -0.00889 3883 ft 342 kts 50°
2026-05-07 19:54 51.20555 0.02097 4329 ft 361 kts 46°
2026-05-07 19:54 51.22331 0.05072 4720 ft 381 kts 45°
2026-05-07 19:55 51.24124 0.08179 4950 ft 374 kts 49°
2026-05-07 19:55 51.25423 0.11639 4950 ft 353 kts 69°
2026-05-07 19:55 51.25931 0.15349 4950 ft 332 kts 82°
2026-05-07 19:55 51.26206 0.18850 4950 ft 313 kts 83°
2026-05-07 19:56 51.26479 0.22206 4951 ft 295 kts 82°
2026-05-07 19:56 51.26774 0.25344 4947 ft 279 kts 80°
2026-05-07 19:56 51.27101 0.28419 4952 ft 282 kts 79°
2026-05-07 19:56 51.27452 0.31497 4951 ft 281 kts 77°
2026-05-07 19:57 51.28219 0.34321 4951 ft 278 kts 51°
2026-05-07 19:57 51.29687 0.36280 4966 ft 278 kts 22°
2026-05-07 19:57 51.31547 0.36856 5523 ft 273 kts 352°
2026-05-07 19:57 51.33335 0.36017 6599 ft 267 kts 334°
2026-05-07 19:58 51.35036 0.34762 7586 ft 271 kts 332°
2026-05-07 19:58 51.36760 0.33474 8522 ft 275 kts 333°
2026-05-07 19:58 51.38437 0.31988 9459 ft 276 kts 320°
2026-05-07 19:58 51.39935 0.30030 10331 ft 283 kts 318°
2026-05-07 19:59 51.41483 0.27951 10766 ft 305 kts 318°
2026-05-07 19:59 51.43168 0.25683 11121 ft 327 kts 318°
2026-05-07 19:59 51.44931 0.23327 11848 ft 334 kts 319°
2026-05-07 19:59 51.46761 0.20892 12579 ft 339 kts 319°
2026-05-07 20:00 51.48570 0.18487 12877 ft 341 kts 319°
2026-05-07 20:00 51.50394 0.16061 12986 ft 342 kts 319°
2026-05-07 20:00 51.52224 0.13626 13000 ft 342 kts 319°
2026-05-07 20:00 51.54049 0.11193 13000 ft 341 kts 319°
2026-05-07 20:01 51.55875 0.08755 12999 ft 341 kts 319°
2026-05-07 20:01 51.57704 0.06310 13000 ft 341 kts 319°
2026-05-07 20:01 51.59531 0.03864 13000 ft 342 kts 319°
2026-05-07 20:01 51.61356 0.01419 13001 ft 342 kts 319°
2026-05-07 20:02 51.63192 -0.01044 13174 ft 345 kts 319°
2026-05-07 20:02 51.65040 -0.03527 13967 ft 346 kts 319°
2026-05-07 20:02 51.66876 -0.05996 14792 ft 349 kts 319°
2026-05-07 20:02 51.68767 -0.08542 15532 ft 354 kts 319°
2026-05-07 20:03 51.70667 -0.11102 16266 ft 358 kts 319°
2026-05-07 20:03 51.72560 -0.13657 16956 ft 362 kts 319°
2026-05-07 20:03 51.74504 -0.16282 17637 ft 366 kts 319°
2026-05-07 20:03 51.76474 -0.18944 18328 ft 369 kts 319°
2026-05-07 20:04 51.78453 -0.21626 18992 ft 373 kts 319°
2026-05-07 20:04 51.80454 -0.24340 19627 ft 377 kts 319°
2026-05-07 20:04 51.82468 -0.27074 20255 ft 381 kts 319°
2026-05-07 20:04 51.84510 -0.29851 20861 ft 385 kts 319°
2026-05-07 20:05 51.86567 -0.32649 21460 ft 388 kts 319°
2026-05-07 20:05 51.88643 -0.35478 22033 ft 392 kts 319°
2026-05-07 20:05 51.90741 -0.38339 22597 ft 396 kts 319°
2026-05-07 20:05 51.92854 -0.41224 23147 ft 399 kts 319°
2026-05-07 20:06 51.94955 -0.44097 23674 ft 403 kts 319°
2026-05-07 20:06 51.97098 -0.47030 23925 ft 405 kts 319°
2026-05-07 20:06 51.99249 -0.49980 23997 ft 405 kts 319°
2026-05-07 20:06 52.01401 -0.52933 24000 ft 405 kts 318°
2026-05-07 20:07 52.03550 -0.55888 24000 ft 405 kts 318°
2026-05-07 20:07 52.05696 -0.58840 24000 ft 404 kts 318°
2026-05-07 20:07 52.07844 -0.61797 24000 ft 405 kts 318°
2026-05-07 20:07 52.09995 -0.64764 24000 ft 405 kts 318°
2026-05-07 20:08 52.12143 -0.67731 24000 ft 405 kts 318°
2026-05-07 20:08 52.14269 -0.70674 24000 ft 404 kts 318°
2026-05-07 20:08 52.16403 -0.73634 24000 ft 404 kts 318°
2026-05-07 20:08 52.18550 -0.76617 24000 ft 405 kts 318°
2026-05-07 20:09 52.20691 -0.79593 24000 ft 405 kts 318°
2026-05-07 20:09 52.22832 -0.82572 24000 ft 405 kts 318°
2026-05-07 20:09 52.25024 -0.85446 24000 ft 405 kts 323°
2026-05-07 20:10 52.29835 -0.90284 24000 ft 406 kts 327°
2026-05-07 20:10 52.32255 -0.92689 24000 ft 406 kts 327°
2026-05-07 20:10 52.34670 -0.95097 24000 ft 406 kts 327°
2026-05-07 20:10 52.37082 -0.97506 24000 ft 406 kts 327°
2026-05-07 20:11 52.39493 -0.99916 23999 ft 407 kts 327°
2026-05-07 20:11 52.41911 -1.02334 23839 ft 407 kts 327°
2026-05-07 20:11 52.44319 -1.04748 23586 ft 404 kts 327°
2026-05-07 20:11 52.46706 -1.07144 23341 ft 402 kts 327°
2026-05-07 20:12 52.49072 -1.09521 23092 ft 401 kts 327°
2026-05-07 20:12 52.51436 -1.11898 22843 ft 399 kts 327°
2026-05-07 20:12 52.53795 -1.14273 22593 ft 397 kts 327°
2026-05-07 20:12 52.56154 -1.16650 22347 ft 396 kts 327°
2026-05-07 20:13 52.58496 -1.19013 22087 ft 394 kts 327°
2026-05-07 20:13 52.60830 -1.21369 21836 ft 392 kts 327°
2026-05-07 20:13 52.63153 -1.23717 21587 ft 391 kts 327°
2026-05-07 20:13 52.65465 -1.26058 21335 ft 389 kts 327°
2026-05-07 20:14 52.67778 -1.28403 21091 ft 388 kts 327°
2026-05-07 20:14 52.70078 -1.30737 20835 ft 387 kts 327°
2026-05-07 20:14 52.72385 -1.33085 20595 ft 407 kts 327°
2026-05-07 20:14 52.74857 -1.35607 20336 ft 423 kts 327°
2026-05-07 20:15 52.77366 -1.38165 20472 ft 420 kts 327°
2026-05-07 20:15 52.79844 -1.40695 20873 ft 425 kts 327°
2026-05-07 20:15 52.82369 -1.43276 21050 ft 426 kts 327°
2026-05-07 20:15 52.84900 -1.45867 20944 ft 426 kts 327°
2026-05-07 20:16 52.87416 -1.48446 20693 ft 424 kts 327°
2026-05-07 20:16 52.89919 -1.51016 20439 ft 422 kts 327°
2026-05-07 20:16 52.92411 -1.53578 20190 ft 420 kts 327°
2026-05-07 20:16 52.94890 -1.56131 19750 ft 419 kts 327°
2026-05-07 20:17 52.97371 -1.58530 19236 ft 417 kts 332°
2026-05-07 20:17 52.99970 -1.60602 18717 ft 413 kts 333°
2026-05-07 20:17 53.02556 -1.62658 18197 ft 409 kts 333°
2026-05-07 20:17 53.05113 -1.64695 17554 ft 407 kts 333°
2026-05-07 20:18 53.07662 -1.66731 16884 ft 403 kts 333°
2026-05-07 20:18 53.10177 -1.68743 16205 ft 399 kts 333°
2026-05-07 20:18 53.12670 -1.70740 15529 ft 395 kts 333°
2026-05-07 20:18 53.15132 -1.72716 14851 ft 390 kts 333°
2026-05-07 20:19 53.17565 -1.74672 14181 ft 386 kts 333°
2026-05-07 20:19 53.19979 -1.76615 13510 ft 382 kts 333°
2026-05-07 20:19 53.22360 -1.78533 12823 ft 377 kts 333°
2026-05-07 20:19 53.24660 -1.80388 12160 ft 365 kts 332°
2026-05-07 20:20 53.26918 -1.82210 11412 ft 357 kts 332°
2026-05-07 20:20 53.29144 -1.84010 10468 ft 354 kts 332°
2026-05-07 20:20 53.31359 -1.85805 9511 ft 353 kts 332°
2026-05-07 20:20 53.32758 -1.86939 8916 ft 351 kts 332°
2026-05-07 20:21 53.34190 -1.88101 8295 ft 350 kts 332°
2026-05-07 20:21 53.36378 -1.89877 7346 ft 348 kts 332°
2026-05-07 20:21 53.38548 -1.91640 6392 ft 346 kts 332°
2026-05-07 20:21 53.40712 -1.93403 5297 ft 347 kts 333°
2026-05-07 20:22 53.42882 -1.95218 4213 ft 346 kts 327°
2026-05-07 20:22 53.44603 -1.97807 3546 ft 330 kts 304°
2026-05-07 20:22 53.45524 -2.01148 3211 ft 306 kts 281°
2026-05-07 20:22 53.45517 -2.04548 3053 ft 283 kts 257°
2026-05-07 20:23 53.44801 -2.07459 2983 ft 257 kts 241°
2026-05-07 20:23 53.43919 -2.09675 2743 ft 201 kts 235°
2026-05-07 20:23 53.43143 -2.11353 2463 ft 166 kts 234°
2026-05-07 20:23 53.42475 -2.12754 2237 ft 144 kts 234°
2026-05-07 20:24 53.41881 -2.13985 2051 ft 130 kts 234°
2026-05-07 20:24 53.41312 -2.15180 1880 ft 132 kts 234°
2026-05-07 20:24 53.40742 -2.16369 1710 ft 130 kts 234°
2026-05-07 20:24 53.40163 -2.17547 1533 ft 131 kts 233°
2026-05-07 20:25 53.39789 -2.18348 1423 ft 132 kts 235°
2026-05-07 20:25 53.39225 -2.19525 1256 ft 126 kts 235°
2026-05-07 20:25 53.38669 -2.20662 1078 ft 127 kts 235°
2026-05-07 20:25 53.38115 -2.21819 918 ft 128 kts 233°
2026-05-07 20:26 53.37552 -2.22978 741 ft 128 kts 235°
2026-05-07 20:26 53.36831 -2.24542 518 ft 130 kts 233°
2026-05-07 20:26 53.36431 -2.25310 385 ft 129 kts 232°
2026-05-07 20:26 53.35702 -2.26842 243 ft 118 kts 231°
2026-05-07 20:27 53.35378 -2.27494 237 ft 87 kts 230°
2026-05-07 20:27 53.35109 -2.28039 230 ft 29 kts 233°
2026-05-07 20:27 53.35093 -2.28151 231 ft 15 kts 302°
2026-05-07 20:27 53.35190 -2.28201 232 ft 9 kts